[[{"header":{"parameterUnit":"m.s-1","parameterCategory":1,"la1":30.2991,"la2":30.254,"lo1":-89.0895,"lo2":-89.0444,"dy":0.0017,"dx":0.0017,"nx":28,"ny":28,"refTime":"2025-12-06T09:00:00:Z","depth":0,"parameterNumber":2,"parameterNumberName":"U-component_of_WINDS"},"data":[0,0,0,0,0,0,0,0,0,0,0,0,0,0,0,0,0,0,0,0,0,0,0,0,0,0,0,0,0,0,0,0,0,0,0,0,0,0,0,0,0,0,0,0,0,0,0,0,0,0,0,0,0,0,0,0,0,0,-3.3164,-3.3164,0,-3.3218,-3.3218,-3.3219,-3.3105,-3.3101,-3.3097,-3.3094,-3.3154,-3.3159,-3.3164,0,0,0,0,0,0,0,0,0,0,0,0,0,-3.2966,-3.297,-3.3164,-3.3164,-3.3165,-3.3217,-3.3218,-3.3219,-3.3105,-3.3101,-3.3096,-3.3092,-3.3152,-3.3158,-3.3164,0,0,0,0,0,0,0,0,0,0,0,0,0,-3.3039,-3.2971,-3.3163,-3.3114,-3.3111,-3.3217,-3.3218,-3.3219,-3.3106,-3.3101,-3.3095,-3.309,-3.315,-3.3158,-3.3165,-3.3323,0,0,-3.3188,-3.3191,0,0,0,0,0,0,0,0,-3.3035,-3.3047,-3.3121,-3.3118,-3.3114,-3.3149,-3.317,-3.3254,-3.3108,-3.3108,-3.3094,-3.3087,-3.3157,-3.3164,-3.3186,-3.3326,-3.3329,-3.3189,-3.3193,-3.3197,-3.3199,0,0,0,0,0,0,0,-3.303,-3.3044,-3.3185,-3.3122,-3.3118,-3.3091,-3.3095,-3.3186,-3.3163,-3.3108,-3.31,-3.3107,-3.3154,-3.3179,-3.3187,-3.3329,-3.3189,-3.3195,-3.32,-3.3203,-3.3602,-3.3608,0,0,0,0,0,0,-3.3031,-3.304,-3.3183,-3.3187,-3.306,-3.3099,-3.3104,-3.3143,-3.3162,-3.3159,-3.3112,-3.3102,-3.3169,-3.3178,-3.3188,-3.3374,-3.3197,-3.3204,-3.3208,-3.3596,-3.3603,-3.361,0,0,0,0,0,0,-3.3027,-3.3045,-3.3181,-3.3111,-3.3126,-3.3108,-3.3154,-3.3147,-3.3172,-3.3165,-3.3161,-3.3142,-3.3165,-3.3178,-3.329,-3.3375,-3.3207,-3.3214,-3.3589,-3.3598,-3.3607,-3.3748,0,0,0,0,0,0,-3.3022,-3.3044,-3.3103,-3.3113,-3.3131,-3.3281,-3.3159,-3.3152,-3.3185,-3.3172,-3.3192,-3.319,-3.3161,-3.3279,-3.3298,-3.3382,-3.322,-3.3581,-3.3593,-3.3604,-3.3736,-3.3761,-3.3783,0,0,0,0,0,-3.3015,-3.3142,-3.3106,-3.3124,-3.3204,-3.3286,-3.3296,-3.326,-3.3192,-3.3252,-3.3247,-3.3189,-3.3363,-3.3292,-3.3312,-3.34,-3.3576,-3.359,-3.3603,-3.3725,-3.3756,-3.3782,0,0,0,0,0,0,-3.3143,-3.3142,-3.3103,-3.3236,-3.3262,-3.3267,-3.3341,-3.3294,-3.334,-3.3326,-3.3281,-3.3286,-3.3408,-3.3415,-3.3336,-3.3554,-3.3458,-3.3476,-3.3545,-3.3574,-3.3596,-3.3592,-3.3226,0,0,0,0,0,-3.3187,-3.3252,-3.3248,-3.3367,-3.3381,-3.3359,-3.3394,-3.3364,-3.3389,-3.34,-3.3403,-3.3432,-3.3492,-3.3533,-3.3589,-3.3737,-3.3739,-3.3807,-3.383,-3.3849,-3.3866,-3.3944,-3.3974,-3.3655,-3.3654,-3.3654,0,0,-3.3278,-3.3285,-3.333,-3.3393,-3.3409,-3.3479,-3.3369,-3.3448,-3.35,-3.3412,-3.3518,-3.3522,-3.355,-3.3681,-3.3739,-3.3691,-3.3955,-3.3867,-3.3882,-3.3888,-3.3962,-3.3992,-3.4019,-3.3664,-3.3662,-3.3661,0,0,-3.3479,-3.3491,-3.3591,-3.3609,-3.3635,-3.3619,-3.3644,-3.3656,-3.3654,-3.3759,-3.3695,-3.3757,-3.3863,-3.3885,-3.3911,-3.4122,-3.407,-3.4141,-3.4263,-3.434,-3.4365,-3.4387,-3.4462,-3.449,-3.4157,-3.4158,-3.4158,0,-3.3589,-3.3691,-3.3648,-3.3732,-3.3761,-3.3684,-3.3785,-3.3805,-3.3849,-3.3872,-3.3817,-3.3947,-3.3961,-3.4096,-3.4148,-3.4171,-3.4198,-3.4138,-3.4365,-3.4387,-3.4407,-3.4478,-3.4506,-3.4166,-3.4165,-3.4164,-3.4164,0,-3.3825,-3.3897,-3.3974,-3.4016,-3.4055,-3.4147,-3.412,-3.4164,-3.4131,-3.4122,-3.4231,-3.4244,-3.4301,-3.4331,-3.43,-3.4462,-3.4432,-3.4372,-3.4275,-3.4446,-3.4512,-3.4539,-3.4178,-3.4175,-3.4173,-3.4171,0,0,-3.4108,-3.4125,-3.4154,-3.4172,-3.4195,-3.4251,-3.434,-3.4394,-3.4433,-3.4466,-3.454,-3.4631,-3.4576,-3.4605,-3.4576,-3.4644,-3.481,-3.4576,-3.4576,-3.4618,-3.499,-3.5034,-3.5066,-3.4776,-3.4781,-3.4785,-3.4987,0,-3.4307,-3.4458,-3.4422,-3.4572,-3.4638,-3.4566,-3.4643,-3.4667,-3.4661,-3.4717,-3.4711,-3.4776,-3.4698,-3.4715,-3.478,-3.4776,-3.4884,-3.4761,-3.4845,-3.4848,-3.4839,-3.51,-3.5147,-3.5337,-3.5012,-3.5017,-3.502,0,-3.4559,-3.46,-3.4756,-3.4768,-3.4794,-3.4864,-3.4911,-3.4966,-3.4991,-3.4982,-3.5015,-3.4973,-3.5062,-3.4964,-3.5087,-3.5005,-3.5037,-3.5041,-3.5047,-3.5053,-3.4944,-3.5113,-3.5397,-3.5425,-3.506,-3.5057,-3.5054,0,-3.4749,-3.4843,-3.4949,-3.4967,-3.4983,-3.5034,-3.5044,-3.5064,-3.5099,-3.514,-3.5163,-3.5215,-3.5244,-3.5286,-3.526,-3.5191,-3.5388,-3.5288,-3.5383,-3.5384,-3.5427,-3.5425,-3.572,-3.545,-3.5449,-3.5449,-3.5448,0,-3.4974,-3.5073,-3.5034,-3.5099,-3.5207,-3.5167,-3.5276,-3.5277,-3.5295,-3.536,-3.5301,-3.5364,-3.5325,-3.5385,-3.5366,-3.547,-3.5484,-3.548,-3.5473,-3.5485,-3.5485,-3.5505,-3.5491,-3.5456,-3.5455,-3.5453,-3.5452,0,-3.5204,-3.5183,-3.5293,-3.5299,-3.5303,-3.5383,-3.5389,-3.545,-3.544,-3.5523,-3.554,-3.5525,-3.5592,-3.557,-3.5643,-3.563,-3.5763,-3.574,-3.5754,-3.5748,-3.5844,-3.5835,-3.6162,-3.6202,-3.5907,-3.591,-3.5912,0,-3.5349,-3.5423,-3.5437,-3.5475,-3.5489,-3.5552,-3.5587,-3.555,-3.5589,-3.5624,-3.5681,-3.5743,-3.579,-3.5902,-3.5898,-3.5954,-3.5931,-3.6042,-3.5939,-3.5948,-3.5932,-3.5928,-3.5935,-3.6062,-3.6065,-3.6068,-3.607,0,-3.5608,-3.5594,-3.5645,-3.5694,-3.5737,-3.5774,-3.5806,-3.5841,-3.5807,-3.5854,-3.5921,-3.5958,-3.6032,-3.6094,-3.6145,-3.6156,-3.6109,-3.6103,-3.6128,-3.614,-3.6144,-3.6142,-3.5809,-3.6095,-3.6093,-3.6091,-3.609,-3.6089,-3.5799,-3.5861,-3.5881,-3.5941,-3.5961,-3.5992,-3.6049,-3.6046,-3.6101,-3.6157,-3.6132,-3.621,-3.6235,-3.6297,-3.6315,-3.6376,-3.6334,-3.637,-3.6379,-3.6389,-3.6401,-3.6136,-3.6386,-3.6385,-3.6384,-3.6384,-3.6383,0,-3.6054,-3.6063,-3.6119,-3.6165,-3.6212,-3.6162,-3.6195,-3.6238,-3.6307,-3.6333,-3.638,-3.6458,-3.6519,-3.652,-3.6576,-3.6625,-3.6605,-3.6641,-3.6637,-3.664,-3.6436,-3.6408,-3.6657,-3.6657,-3.6657,-3.6657,-3.6657,-3.6657,-3.6193,-3.6294,-3.6283,-3.6395,-3.6403,-3.6478,-3.6501,-3.6529,-3.655,-3.6639,-3.6688,-3.6688,-3.6704,-3.6762,-3.6815,-3.6814,-3.6837,-3.6882,-3.6873,-3.6682,-3.6655,-3.6629,-3.6602,-3.6888,-3.6888,-3.7072,-3.7074,-3.7075]},{"header":{"parameterUnit":"m.s-1","parameterCategory":1,"la1":30.2991,"la2":30.254,"lo1":-89.0895,"lo2":-89.0444,"dy":0.0017,"dx":0.0017,"nx":28,"ny":28,"refTime":"2025-12-06T09:00:00:Z","depth":0,"parameterNumber":3,"parameterNumberName":"V-component_of_WINDS"},"data":[0,0,0,0,0,0,0,0,0,0,0,0,0,0,0,0,0,0,0,0,0,0,0,0,0,0,0,0,0,0,0,0,0,0,0,0,0,0,0,0,0,0,0,0,0,0,0,0,0,0,0,0,0,0,0,0,0,0,-0.9929,-0.9928,0,-0.9858,-0.9857,-0.9856,-0.9855,-0.9856,-0.9857,-0.9858,-0.9781,-0.9779,-0.9776,0,0,0,0,0,0,0,0,0,0,0,0,0,-1.0057,-1.0055,-0.9929,-0.9928,-0.9927,-0.9858,-0.9857,-0.9856,-0.9855,-0.9856,-0.9857,-0.9858,-0.9782,-0.9779,-0.9775,0,0,0,0,0,0,0,0,0,0,0,0,0,-0.9995,-1.0054,-0.9929,-0.9918,-0.9916,-0.9858,-0.9857,-0.9856,-0.9854,-0.9856,-0.9857,-0.9858,-0.9783,-0.9779,-0.9775,-0.9722,0,0,-0.9762,-0.976,0,0,0,0,0,0,0,0,-0.9999,-0.9991,-0.9921,-0.9919,-0.9917,-0.9867,-0.9875,-0.9811,-0.9854,-0.9878,-0.9858,-0.9859,-0.9808,-0.9802,-0.9786,-0.9718,-0.9715,-0.9761,-0.9759,-0.9757,-0.9756,0,0,0,0,0,0,0,-1.0003,-0.9994,-0.9901,-0.9919,-0.9917,-0.9915,-0.9908,-0.9862,-0.9836,-0.9876,-0.9876,-0.9867,-0.9808,-0.979,-0.9784,-0.9714,-0.9762,-0.9758,-0.9755,-0.9753,-0.9595,-0.9594,0,0,0,0,0,0,-1.001,-0.9997,-0.9903,-0.9898,-0.9962,-0.9912,-0.9903,-0.9881,-0.9837,-0.9831,-0.9866,-0.9868,-0.9797,-0.9789,-0.9781,-0.9713,-0.9757,-0.9753,-0.9751,-0.9597,-0.9595,-0.9593,0,0,0,0,0,0,-1.0013,-1.0002,-0.9906,-0.9948,-0.9935,-0.9908,-0.9883,-0.9879,-0.9862,-0.983,-0.9825,-0.9853,-0.9797,-0.9787,-0.9736,-0.9711,-0.9751,-0.9747,-0.9599,-0.9596,-0.9594,-0.9579,0,0,0,0,0,0,-1.0017,-1.0003,-0.9984,-0.9947,-0.9933,-0.9863,-0.9882,-0.9877,-0.9855,-0.9856,-0.9816,-0.9811,-0.9798,-0.9742,-0.9732,-0.9706,-0.9744,-0.9601,-0.9598,-0.9595,-0.9581,-0.9576,-0.9572,0,0,0,0,0,-1.0022,-0.9982,-0.9983,-0.9972,-0.9909,-0.9862,-0.9853,-0.984,-0.9853,-0.9832,-0.9811,-0.9812,-0.9716,-0.9737,-0.9725,-0.9697,-0.9602,-0.9599,-0.9595,-0.9584,-0.9577,-0.9572,0,0,0,0,0,0,-1.0016,-0.9977,-0.9978,-0.9926,-0.9897,-0.9862,-0.9835,-0.9834,-0.98,-0.9802,-0.9786,-0.9777,-0.9725,-0.9706,-0.9731,-0.9642,-0.966,-0.9654,-0.9656,-0.9649,-0.9645,-0.9649,-0.974,0,0,0,0,0,-1.0009,-0.9975,-0.9943,-0.99,-0.9886,-0.9863,-0.9842,-0.9834,-0.9803,-0.9791,-0.9766,-0.9735,-0.9697,-0.9673,-0.9636,-0.9579,-0.9569,-0.9554,-0.9549,-0.9545,-0.9539,-0.9504,-0.9496,-0.9581,-0.9581,-0.9581,0,0,-0.9993,-0.9968,-0.9948,-0.9898,-0.9875,-0.9838,-0.9853,-0.9814,-0.9786,-0.9784,-0.9734,-0.9715,-0.9678,-0.9623,-0.9598,-0.9606,-0.9514,-0.9541,-0.9538,-0.9534,-0.95,-0.9492,-0.9485,-0.9579,-0.9579,-0.9579,0,0,-0.9946,-0.9925,-0.9885,-0.9862,-0.9826,-0.9811,-0.9802,-0.9766,-0.9753,-0.9703,-0.97,-0.9666,-0.9602,-0.9575,-0.9554,-0.9494,-0.9492,-0.9483,-0.9456,-0.9423,-0.9416,-0.941,-0.9386,-0.9378,-0.9478,-0.9477,-0.9477,0,-0.993,-0.9877,-0.9865,-0.9826,-0.9802,-0.98,-0.9759,-0.9736,-0.969,-0.9673,-0.9684,-0.9602,-0.9578,-0.9515,-0.95,-0.9484,-0.947,-0.9486,-0.9418,-0.9412,-0.9406,-0.9383,-0.9374,-0.9476,-0.9476,-0.9477,-0.9477,0,-0.9858,-0.9821,-0.9793,-0.9749,-0.9723,-0.9683,-0.9663,-0.9638,-0.9632,-0.9615,-0.9562,-0.9533,-0.9489,-0.9474,-0.9468,-0.9409,-0.9415,-0.9422,-0.944,-0.9397,-0.9375,-0.9366,-0.9475,-0.9475,-0.9475,-0.9476,0,0,-0.9804,-0.9754,-0.9744,-0.9723,-0.9683,-0.9653,-0.9612,-0.957,-0.9547,-0.9515,-0.9478,-0.9424,-0.9429,-0.9405,-0.9395,-0.9366,-0.9317,-0.9376,-0.9375,-0.9364,-0.9246,-0.9239,-0.9229,-0.9316,-0.9315,-0.9313,-0.9248,0,-0.975,-0.9678,-0.9665,-0.9601,-0.9565,-0.9561,-0.9525,-0.9495,-0.9478,-0.9443,-0.9424,-0.9384,-0.9396,-0.9381,-0.9352,-0.9329,-0.9292,-0.9334,-0.9279,-0.9277,-0.9286,-0.9218,-0.9211,-0.9151,-0.924,-0.9238,-0.9237,0,-0.9678,-0.9644,-0.9576,-0.9539,-0.9524,-0.9491,-0.945,-0.9418,-0.9384,-0.9373,-0.9344,-0.9338,-0.9292,-0.9314,-0.9249,-0.9277,-0.9254,-0.9239,-0.9237,-0.9229,-0.9253,-0.9206,-0.9132,-0.9122,-0.9224,-0.9225,-0.9226,0,-0.9642,-0.958,-0.953,-0.9513,-0.9469,-0.9446,-0.9426,-0.9394,-0.9368,-0.9332,-0.9315,-0.9275,-0.9251,-0.9219,-0.92,-0.9218,-0.9136,-0.9156,-0.9123,-0.9123,-0.9104,-0.9105,-0.9022,-0.9094,-0.9094,-0.9094,-0.9094,0,-0.9581,-0.9539,-0.9513,-0.9483,-0.9434,-0.942,-0.9372,-0.9352,-0.9323,-0.9286,-0.9281,-0.9247,-0.9226,-0.9188,-0.9174,-0.912,-0.9111,-0.9099,-0.9095,-0.9098,-0.9099,-0.908,-0.9083,-0.9092,-0.9092,-0.9093,-0.9093,0,-0.9532,-0.9514,-0.9459,-0.9422,-0.9412,-0.9377,-0.9345,-0.9313,-0.9296,-0.925,-0.9239,-0.9211,-0.9166,-0.9145,-0.9089,-0.9079,-0.9017,-0.9018,-0.9029,-0.9027,-0.8993,-0.8996,-0.8894,-0.8879,-0.8963,-0.8962,-0.8961,0,-0.9493,-0.9461,-0.942,-0.9396,-0.9376,-0.9337,-0.9311,-0.9295,-0.9268,-0.9225,-0.9198,-0.9153,-0.9116,-0.9044,-0.9017,-0.8974,-0.8971,-0.8939,-0.8965,-0.8967,-0.8967,-0.8968,-0.8963,-0.8933,-0.8932,-0.8932,-0.8931,0,-0.9426,-0.9418,-0.9381,-0.9341,-0.931,-0.9278,-0.9245,-0.9225,-0.9204,-0.9173,-0.9127,-0.9098,-0.9041,-0.8995,-0.895,-0.8927,-0.8924,-0.8924,-0.8913,-0.8914,-0.892,-0.8913,-0.9013,-0.8925,-0.8926,-0.8926,-0.8927,-0.8927,-0.9378,-0.9348,-0.9314,-0.9273,-0.9247,-0.9217,-0.9185,-0.9163,-0.9125,-0.9078,-0.907,-0.902,-0.8984,-0.8923,-0.8899,-0.8858,-0.8866,-0.8851,-0.8847,-0.8843,-0.8839,-0.8929,-0.885,-0.8851,-0.8851,-0.8851,-0.8851,0,-0.9307,-0.9285,-0.9248,-0.9203,-0.9169,-0.9172,-0.9135,-0.9107,-0.9063,-0.9031,-0.8994,-0.894,-0.8895,-0.8865,-0.8819,-0.8792,-0.8789,-0.878,-0.878,-0.8774,-0.8837,-0.8849,-0.8783,-0.8783,-0.8783,-0.8783,-0.8783,-0.8783,-0.9266,-0.9214,-0.9202,-0.9136,-0.9114,-0.9066,-0.9044,-0.9015,-0.8989,-0.8929,-0.8891,-0.8873,-0.884,-0.8791,-0.8749,-0.8741,-0.8723,-0.8713,-0.8705,-0.8763,-0.877,-0.8777,-0.8788,-0.871,-0.871,-0.8645,-0.8645,-0.8644]}]]